Change the Weather History Date:

Thursday, July 11, 2013

  Actual Average Record
Temperature  
Mean Temperature 68 °F 71 °F  
Max Temperature 79 °F 82 °F 104 °F (1936)
Min Temperature 56 °F 59 °F 41 °F (1945)
Degree Days  
Heating Degree Days 0 0  
Month to date heating degree days 0 10  
Since 1 June heating degree days 41 76  
Since 1 July heating degree days 0 10  
Cooling Degree Days 3 6  
Month to date cooling degree days 99 66  
Year to date cooling degree days 337 210  
Since 1 June cooling degree days 258 178  
Growing Degree Days 17 (Base 50)    
Moisture  
Dew Point 54 °F    
Average Humidity 65    
Maximum Humidity 87    
Minimum Humidity 42    
Precipitation  
Precipitation 0.00 in 0.10 in 2.20 in (1922)
Month to date precipitation 0.31 1.07  
Year to date precipitation 21.58 15.13  
Snow  
Snow 0.00 in 0.00 in 0.00 in ()
Month to date snowfall 0.0 0.0  
Since 1 June snowfall 0.0 0.0  
Since 1 July snowfall 0.0 0.0  
Snow Depth 0.00 in    
Sea Level Pressure  
Sea Level Pressure 30.04 in    
Wind  
Wind Speed 7 mph (North)    
Max Wind Speed 15 mph    
Max Gust Speed 17 mph    
Visibility 10 miles    
Events      
T = Trace of Precipitation, MM = Missing Value Source: NWS Daily Summary

Daily Weather History Graph

Daily Weather History Graph

Search for Another Location

Airport or City:

Trip Planner

Search our weather history database for the weather conditions in past years. The results will help you decide how hot, cold, wet, or windy it might be!

Date:

Astronomy

Jul. 11, 2013 Rise Set
Actual Time 6:06 AM EDT 9:14 PM EDT
Civil Twilight 5:32 AM EDT 9:48 PM EDT
Nautical Twilight 4:47 AM EDT 10:32 PM EDT
Astronomical Twilight 3:54 AM EDT 11:25 PM EDT
Moon 9:30 AM EDT (7/11) 10:47 PM EDT (7/11)
Length of Visible Light 16h 16m
Length of Day
15h 07m
Waxing Crescent, 10% of the Moon is Illuminated
Jul 11
Waxing Crescent
Jul 15
First Quarter
Jul 22
Full
Jul 29
Last Quarter
Aug 6
New

Hourly Weather History & Observations

Time (EDT) Temp. Dew Point Humidity Pressure Visibility Wind Dir Wind Speed Gust Speed Precip Events Conditions
12:53 AM 66.0 °F 55.0 °F 68% 29.97 in 10.0 mi NW 5.8 mph - N/A   Clear
1:53 AM 64.0 °F 55.0 °F 73% 29.97 in 10.0 mi NNW 4.6 mph - N/A   Clear
2:53 AM 63.0 °F 55.0 °F 75% 29.97 in 10.0 mi NW 5.8 mph - N/A   Clear
3:53 AM 61.0 °F 55.0 °F 81% 29.99 in 10.0 mi WNW 4.6 mph - N/A   Clear
4:53 AM 59.0 °F 54.0 °F 83% 30.00 in 10.0 mi West 3.5 mph - N/A   Clear
5:53 AM 57.0 °F 53.1 °F 87% 30.02 in 10.0 mi Calm Calm - N/A   Clear
6:53 AM 59.0 °F 55.0 °F 87% 30.03 in 10.0 mi West 3.5 mph - N/A   Clear
7:53 AM 64.9 °F 55.0 °F 70% 30.04 in 10.0 mi NW 4.6 mph - N/A   Clear
8:53 AM 69.1 °F 55.9 °F 63% 30.06 in 10.0 mi WNW 4.6 mph - N/A   Clear
9:53 AM 72.0 °F 55.0 °F 55% 30.06 in 10.0 mi NW 3.5 mph - N/A   Clear
10:53 AM 73.9 °F 55.9 °F 53% 30.05 in 10.0 mi North 12.7 mph - N/A   Partly Cloudy
11:53 AM 73.9 °F 55.0 °F 52% 30.06 in 10.0 mi North 11.5 mph - N/A   Scattered Clouds
12:53 PM 75.9 °F 55.0 °F 48% 30.05 in 10.0 mi North 12.7 mph 17.3 mph N/A   Scattered Clouds
1:53 PM 73.9 °F 54.0 °F 50% 30.06 in 10.0 mi Variable 5.8 mph - N/A   Mostly Cloudy
2:53 PM 78.1 °F 54.0 °F 43% 30.05 in 10.0 mi North 9.2 mph 17.3 mph N/A   Mostly Cloudy
3:53 PM 78.1 °F 55.0 °F 45% 30.06 in 10.0 mi North 10.4 mph - N/A   Clear
4:53 PM 78.1 °F 55.0 °F 45% 30.06 in 10.0 mi NNE 6.9 mph - N/A   Scattered Clouds
5:53 PM 75.9 °F 53.1 °F 45% 30.06 in 10.0 mi North 8.1 mph - N/A   Clear
6:53 PM 75.9 °F 51.1 °F 42% 30.06 in 10.0 mi North 8.1 mph - N/A   Clear
7:53 PM 75.0 °F 53.1 °F 46% 30.06 in 10.0 mi NNE 8.1 mph - N/A   Clear
8:53 PM 72.0 °F 54.0 °F 53% 30.05 in 10.0 mi NNE 8.1 mph - N/A   Clear
9:53 PM 68.0 °F 55.0 °F 63% 30.06 in 10.0 mi NE 6.9 mph - N/A   Clear
10:53 PM 66.9 °F 55.9 °F 68% 30.08 in 10.0 mi ENE 10.4 mph - N/A   Clear
11:53 PM 64.0 °F 54.0 °F 70% 30.09 in 10.0 mi ENE 9.2 mph - N/A   Clear